Погода в Злихе

Погода в Злихе : погода сейчас, прогноз погоды и архив. Всё, что Вы хотите узнать о погоде в Злихе!

Поиск расширенной информации на нашем сайте:

Другие новости

Новости СМИ2

Главная страница сайта

Новости сайта

03.07.2017

Напоминаем, что на нашем специализированном сайте Метеоцентр.Азия вы можете получить высокодетализированные автоматические прогнозы погоды по пунктам России, СНГ и мира в авиационном формате (включающие направление и скорость ветра, видимость, явления погоды, количество и форму облачности, нижнюю и верхнюю границу облачности).


Погода в Злихе - сегодня

Время (UTC), дата Ветер
(°,м/с) 
Видим.   Явления Облачность Т
(°С)
Тd
(°С)
f(%) Тe
(°С)
Pmin
(гПа)
dP
(гПа)
Po
(мм)
O2
(г/м3)
Тmin Tmax R s Состояние
почвы
00 17.04.18 320 (СЗ) н/о    9/9 600 м 
[Sc]
+9 -0.7 51 +9  1020.6  0.4  753  294           
03 17.04.18 320 (СЗ) 20000 м    9/9 600 м 
[Sc]
+10.6 +0 48 +11  1020.3  -0.2  753  292           
06 17.04.18 320 (СЗ) 20000 м    9/9 600 м 
[Sc]
+13.2 +1.9 46 +12  1020.3  0.1  753  289  +8         
09 17.04.18 320 (СЗ) 20000 м    9/9 600 м 
[Sc]
+13.4 +2.3 47 +13  1019.4  -0.9  752  289           
12 17.04.18 320 (СЗ) 4000 м  слаб. дождь  10/10 600 м 
[Ns]
+8.4 +4.8 78 +9  1020.9  1.3  753  294           
15 17.04.18 320 (СЗ) н/о  слаб. дождь  10/10 600 м 
[Ns]
+7.6 +4.6 81 +9  1021.7  0.6  754  295    +14.5     
18 17.04.18 320 (СЗ) н/о  {дождь}  8/8 600 м 
[Sc]
+7.2 +4.6 84 +8  1022.9  1.2  754  295    +1.4     
21 17.04.18 320 (СЗ) н/о    6/6 600 м 
[Sc]
+6.4 +3.6 82 +7  1023.5  0.6  755  297           
00 18.04.18 200 (Ю) н/о    4/4 600 м 
[Sc]
+5.4 +2.2 80 +6  1023.9  0.3  755  298           
03 18.04.18 230 (ЮЗ) 20000 м    3/0 средняя 
[Ac lent]
+8.4 +3.2 70 +9  1024.2  0.6  756  295           
06 18.04.18 180 (Ю) 20000 м    4/0 средняя 
[Ac lent]
+14 +4.5 53 +13  1024.9  0.9  756  289  +3.5    0.6     
09 18.04.18 270 (З) 20000 м    9/9 600 м 
[Cu med, cong]
+18.4 -0.7 27 +18  1023.4  -1.2  755  285           
12 18.04.18 270 (З) 20000 м    8/8 600 м 
[Cu med, cong]
+18.2 -1.7 26 +18  1022.7  -0.8  755  285           
15 18.04.18 230 (ЮЗ) н/о    9/9 600 м 
[Sc]
+15.4 -0.9 33 +16  1023.1  0.3  755  288    +20       
18 18.04.18 230 (ЮЗ) н/о    6/6 600 м 
[Sc]
+12.2 +0 43 +13  1023.4  0.1  755  291    +20       
21 18.04.18 290 (З) н/о    6/6 600 м 
[Sc]
+9.4 -0.7 49 +9  1023.1  -0.4  755  294           
00 19.04.18 270 (З) н/о    3/3 600 м 
[Sc]
+5.4 -1 63 +6  1022.8  -0.6  754  298           
03 19.04.18 230 (ЮЗ) 20000 м    8/0 средняя 
[Ac lent]
+9.2 +1.1 57 +9  1022.6  0.1  754  294           
06 19.04.18 230 (ЮЗ) 20000 м    8/0 средняя 
[Ac cast]
+15.8 +1.1 37 +17  1022.2  -0.1  754  287  +4         
09 19.04.18 270 (З) 20000 м    9/9 600 м 
[Cu med, cong]
+19.2 +2.3 32 +20  1020.8  -1.2  753  283           
12 19.04.18 320 (СЗ) 20000 м    8/8 600 м 
[Cu med, cong]
+18.4 +3.2 36 +19  1020.5  -0.3  753  284           
15 19.04.18 тихо ()   н/о  {ливн. осадки}  6/6 600 м кучево-дожд. 
[Cb cap]
+13.2 +7.6 69 +13  1021.6  0.8  754  288    +20.2       
18 19.04.18 тихо ()   н/о  {ливн. осадки}  3/3 600 м кучево-дожд. 
[Cb cap]
+8.8 +4.5 74 +9  1021.8  754  294    +20.2  0.4     
21 19.04.18 тихо ()   н/о    3/3 600 м кучево-дожд. 
[Cb cap]
+6.2 +2.6 78 +6  1021.5  -0.6  753  296           
00 20.04.18 тихо ()   н/о    8/0 средняя 
[Ac lent]
+4.2 +0.5 77 +4    -0.7             
Время (UTC), дата Ветер
(°,м/с) 
Видим.   Явления Облачность Т
(°С)
Тd
(°С)
f(%) Тe
(°С)
Pmin
(гПа)
dP
(гПа)
Po
(мм)
O2
(г/м3)
Тmin Tmax R s Состояние
почвы

Для получения пояснительной информации подведите курсор к названию столбца.

ПОГОДА в Злихе - архив

Всё, что Вы хотите узнать о погоде в Злихе - удобно и подробно!

Выберите нужную дату (начиная с 1 января 2015* года) и нажмите кнопку "Найти".
Будут отображены архивные сводки погоды по пункту Злиха, начиная с указанной даты.


Отображать данные в формате CSV (для использования в таблицах Excel)


Внимание! Наш архив погоды предназначен исключительно для личного некоммерческого использования в познавательных целях. Если Вам необходимы официальные справки о состоянии погоды (для производственных, юридических, коммерческих и т.п. целей), обращайтесь в органы Росгидромета.

*Примечание: данная дата относится к архиву по метеостанциям СССР (Россия, СНГ, Балтия).
Архив по метеостанциям Зарубежной Европы и Азии (кроме Китая) хранится 10 дней, по другим регионам земного шара (Китай, Африка, Америка, Австралия, Океания) - 1 день.

Злиха - район местоположения метеостанции


Название, широта, долгота, высота метеостанции:
Злиха 45.2°ш. 67.1°д. 138 м над ур. моря [Казахстан]

Дополнительная информация

В oтличие oт бoльшинства пoгoдных сайтoв мы публикуем пoдрoбную метеoинфoрмацию в детальнoм прoфессиoнальнoм фoрмате.

Характеристики температуры и влажнoсти вoздуха измеряются на высoте 2 м в тени вдали oт зданий и деревьев.
Скoрoсть ветра измеряется на высoте 10 м (на урoвне рoста челoвека скoрoсть ветра ниже в 1.5-2 раза). Если метеoстанция нахoдится в гoрoде или в лесу, тo скoрoсть ветра занижена на 2-4 м/с пo сравнению с oткрытым местoм. Скoрoсть ветра над акватoриями крупных рек и oзёр, а также на вершинах хoлмoв на 2-5 м/с выше, чем в oбычных услoвиях.
Атмoсфернoе давление в разных тoчках местнoсти мoжет значительнo oтличаться oт давления на метеoстанции, в зависимoсти oт услoвий рельефа (при пoдъёме на 10 м давление пoнижается примернo на 1 мм рт.ст.).